Weather in Engel-Yurt

Russia / Chechen Republic     43°19′29″N   46°21′21″E
temp.,
°C
wind,
m/s
gust,
m/s
humid.,
%
clouds,
%
prec.,
mm/h
press.,
hPa
HPBL,
m
15 may, sat
sat1500:00+18ssw22540 0.0 101115
03:00+17ssw22550 0.0 101114
06:00+19ssw11610 0.0 101215
09:00+25nne11480 0.0 1013391
12:00+29ne33380 0.0 1012838
15:00+30ene44300 0.0 10101000
18:00+24nne115499 0.0 101126
21:00+19wsw2263100 0.0 101318
16 may, sun
sun1600:00+19sse226680 0.0 101114
03:00+17s116767 0.0 101113
06:00+18wsw11665 0.0 101044
09:00+24nne21510 0.0 1009443
12:00+29ne34390 0.0 1007960
15:00+31e68330 0.0 1005834
18:00+25e47500 0.0 1004145
21:00+21s22580 0.0 100526
17 may, mon
mon1700:00+19s115720 0.0 100514
03:00+18s11455 0.0 100516
06:00+19se114978 0.0 100525
09:00+25ne22445 0.0 1005343
12:00+31ene44295 0.0 1004727
15:00+29ene44390 0.0 1004497
18:00+23nne12685 0.0 100345
21:00+19wsw2371100 0.0 100737
18 may, tue
tue1800:00+21wsw396996 0.0 1007218
03:00+19wsw5127694 0.0 1008504
06:00+18w61082100 0.0 1011821
09:00+18w6982100 0.4 1012892
12:00+17wsw599298 3.1 1013689
15:00+19wsw4782100 3.6 1013734
18:00+20wsw587399 0.0 1014485
21:00+19ssw377190 0.0 1015192
19 may, wed
wed1900:00+16ssw227516 0.0 101528
03:00+15sw22764 0.0 101619
06:00+17sw22754 0.0 101783
09:00+22nnw22590 0.0 1016740
12:00+25ne32430 0.0 10151302
15:00+26ene44380 0.0 10141254
18:00+23e35570 0.0 1013129
21:00+18se33675 0.0 101437